| time (UTC) | temp F | wind direction | speed MPH | gust MPH | rain 1hr in | rain 24hr in | rain mn in | humidity % | barometer mb |
| 20260831001433 | 71 | 311 | 0.0 | 0.0 | 0.00 | 0.00 | 0.00 | 74 | 1012.6 |
| 20260831000930 | 71 | 311 | 0.0 | 0.0 | 0.00 | 0.00 | 0.00 | 75 | 1012.5 |
| 20260831000426 | 71 | 311 | 0.0 | 0.0 | 0.00 | 0.00 | 0.00 | 74 | 1012.5 |
| 20260830235924 | 71 | 311 | 0.0 | 0.0 | 0.00 | 0.00 | 0.00 | 75 | 1012.2 |
| 20260830235419 | 71 | 311 | 0.0 | 0.0 | 0.00 | 0.00 | 0.00 | 74 | 1012.3 |
| 20260830234914 | 71 | 311 | 0.0 | 0.0 | 0.00 | 0.00 | 0.00 | 74 | 1012.4 |
| 20260830234409 | 72 | 311 | 0.0 | 0.0 | 0.00 | 0.00 | 0.00 | 74 | 1012.3 |
| 20260830233905 | 72 | 311 | 0.0 | 0.0 | 0.00 | 0.00 | 0.00 | 74 | 1012.4 |
| 20260830233400 | 72 | 311 | 0.0 | 0.0 | 0.00 | 0.00 | 0.00 | 73 | 1012.3 |
| 20260830232856 | 73 | 312 | 0.0 | 0.0 | 0.00 | 0.00 | 0.00 | 73 | 1012.1 |
| 20260830232351 | 73 | 311 | 0.0 | 0.0 | 0.00 | 0.00 | 0.00 | 71 | 1012.2 |
| 20260830231848 | 73 | 309 | 0.0 | 0.0 | 0.00 | 0.00 | 0.00 | 71 | 1012.3 |
| 20260830231343 | 73 | 309 | 0.0 | 0.0 | 0.00 | 0.00 | 0.00 | 70 | 1012.2 |
| 20260830230842 | 73 | 309 | 0.0 | 0.0 | 0.00 | 0.00 | 0.00 | 70 | 1012.4 |
| 20260830230338 | 73 | 309 | 0.0 | 0.0 | 0.00 | 0.00 | 0.00 | 70 | 1012.4 |
| 20260830225837 | 73 | 309 | 0.0 | 0.0 | 0.00 | 0.00 | 0.00 | 70 | 1012.4 |
| 20260830225332 | 73 | 309 | 0.0 | 0.0 | 0.00 | 0.00 | 0.00 | 70 | 1012.4 |
| 20260830224827 | 73 | 309 | 0.0 | 0.0 | 0.00 | 0.00 | 0.00 | 69 | 1012.2 |
| 20260830224321 | 74 | 309 | 0.0 | 0.0 | 0.00 | 0.00 | 0.00 | 69 | 1012.3 |
| 20260830223818 | 74 | 309 | 0.0 | 0.0 | 0.00 | 0.00 | 0.00 | 69 | 1012.3 |
| 20260830223314 | 74 | 310 | 0.0 | 0.0 | 0.00 | 0.00 | 0.00 | 69 | 1012.3 |
| 20260830222808 | 74 | 311 | 0.0 | 0.0 | 0.00 | 0.00 | 0.00 | 68 | 1012.3 |
| 20260830222306 | 74 | 322 | 1.0 | 2.0 | 0.00 | 0.00 | 0.00 | 67 | 1012.5 |
| 20260830221758 | 75 | 317 | 1.0 | 1.0 | 0.00 | 0.00 | 0.00 | 66 | 1012.5 |
| 20260830221256 | 75 | 314 | 0.0 | 0.0 | 0.00 | 0.00 | 0.00 | 66 | 1012.6 |
| 20260830220756 | 75 | 312 | 0.0 | 1.0 | 0.00 | 0.00 | 0.00 | 65 | 1012.3 |
| 20260830220255 | 75 | 317 | 0.0 | 0.0 | 0.00 | 0.00 | 0.00 | 65 | 1012.6 |
| 20260830215753 | 75 | 310 | 0.0 | 0.0 | 0.00 | 0.00 | 0.00 | 65 | 1012.7 |
| 20260830215248 | 75 | 311 | 0.0 | 0.0 | 0.00 | 0.00 | 0.00 | 65 | 1012.7 |
| 20260830214743 | 75 | 312 | 0.0 | 0.0 | 0.00 | 0.00 | 0.00 | 65 | 1012.5 |
| 20260830214243 | 75 | 311 | 1.0 | 1.0 | 0.00 | 0.00 | 0.00 | 65 | 1012.6 |
| 20260830213742 | 75 | 319 | 0.0 | 1.0 | 0.00 | 0.00 | 0.00 | 64 | 1012.6 |
| 20260830213237 | 75 | 309 | 0.0 | 1.0 | 0.00 | 0.00 | 0.00 | 65 | 1012.6 |
| 20260830212734 | 75 | 307 | 0.0 | 1.0 | 0.00 | 0.00 | 0.00 | 66 | 1012.8 |
| 20260830212229 | 75 | 325 | 1.0 | 1.0 | 0.00 | 0.00 | 0.00 | 65 | 1012.9 |
| 20260830211729 | 75 | 306 | 1.0 | 1.0 | 0.00 | 0.00 | 0.00 | 66 | 1012.7 |
| 20260830211228 | 76 | 304 | 1.0 | 1.0 | 0.00 | 0.00 | 0.00 | 66 | 1012.6 |
| 20260830210724 | 75 | 307 | 0.0 | 0.0 | 0.00 | 0.00 | 0.00 | 66 | 1012.7 |
| 20260830210223 | 75 | 309 | 0.0 | 1.0 | 0.00 | 0.00 | 0.00 | 66 | 1012.7 |
| 20260830205720 | 76 | 307 | 1.0 | 1.0 | 0.00 | 0.00 | 0.00 | 67 | 1012.7 |
| 20260830205215 | 76 | 307 | 1.0 | 1.0 | 0.00 | 0.00 | 0.00 | 66 | 1012.6 |
| 20260830204710 | 76 | 308 | 0.0 | 1.0 | 0.00 | 0.00 | 0.00 | 65 | 1012.7 |
| 20260830204209 | 75 | 311 | 0.0 | 1.0 | 0.00 | 0.00 | 0.00 | 66 | 1012.9 |
| 20260830203706 | 75 | 305 | 2.0 | 2.0 | 0.00 | 0.00 | 0.00 | 66 | 1012.7 |
| 20260830203201 | 75 | 305 | 1.0 | 1.0 | 0.00 | 0.00 | 0.00 | 66 | 1013.1 |
| 20260830202701 | 75 | 308 | 1.0 | 1.0 | 0.00 | 0.00 | 0.00 | 67 | 1012.9 |
| 20260830202156 | 75 | 310 | 0.0 | 0.0 | 0.00 | 0.00 | 0.00 | 67 | 1012.6 |
| 20260830201655 | 75 | 310 | 0.0 | 0.0 | 0.00 | 0.00 | 0.00 | 67 | 1012.8 |
| 20260830201150 | 75 | 302 | 1.0 | 2.0 | 0.00 | 0.00 | 0.00 | 67 | 1013.0 |
| 20260830200646 | 75 | 309 | 0.0 | 1.0 | 0.00 | 0.00 | 0.00 | 67 | 1013.0 |
| 20260830200145 | 75 | 311 | 0.0 | 0.0 | 0.00 | 0.00 | 0.00 | 67 | 1013.2 |
| 20260830195641 | 75 | 308 | 0.0 | 0.0 | 0.00 | 0.00 | 0.00 | 68 | 1013.1 |
| 20260830195139 | 75 | 304 | 1.0 | 1.0 | 0.00 | 0.00 | 0.00 | 67 | 1013.1 |
| 20260830194637 | 75 | 310 | 0.0 | 0.0 | 0.00 | 0.00 | 0.00 | 67 | 1013.5 |
| 20260830194132 | 75 | 310 | 0.0 | 0.0 | 0.00 | 0.00 | 0.00 | 67 | 1013.3 |
| 20260830193627 | 75 | 306 | 1.0 | 1.0 | 0.00 | 0.00 | 0.00 | 67 | 1013.3 |
| 20260830193127 | 75 | 308 | 0.0 | 2.0 | 0.00 | 0.00 | 0.00 | 69 | 1013.5 |
| 20260830192623 | 75 | 309 | 0.0 | 0.0 | 0.00 | 0.00 | 0.00 | 69 | 1013.5 |
| 20260830192117 | 75 | 308 | 0.0 | 0.0 | 0.00 | 0.00 | 0.00 | 70 | 1013.6 |
| 20260830191613 | 75 | 304 | 1.0 | 1.0 | 0.00 | 0.00 | 0.00 | 70 | 1013.7 |
| 20260830191108 | 75 | 310 | 0.0 | 0.0 | 0.00 | 0.00 | 0.00 | 71 | 1013.6 |
| 20260830190604 | 74 | 311 | 1.0 | 1.0 | 0.00 | 0.00 | 0.00 | 72 | 1013.8 |
| 20260830190058 | 74 | 310 | 0.0 | 0.0 | 0.00 | 0.00 | 0.00 | 73 | 1013.8 |
| 20260830185551 | 74 | 308 | 1.0 | 1.0 | 0.00 | 0.00 | 0.00 | 73 | 1013.8 |
| 20260830185047 | 74 | 296 | 0.0 | 1.0 | 0.00 | 0.00 | 0.00 | 74 | 1013.9 |
| 20260830184546 | 73 | 304 | 1.0 | 1.0 | 0.00 | 0.00 | 0.00 | 76 | 1013.9 |
| 20260830184040 | 73 | 309 | 0.0 | 0.0 | 0.00 | 0.00 | 0.00 | 77 | 1014.2 |
| 20260830183535 | 73 | 307 | 0.0 | 1.0 | 0.00 | 0.00 | 0.00 | 76 | 1014.2 |
| 20260830183031 | 73 | 311 | 0.0 | 1.0 | 0.00 | 0.00 | 0.00 | 77 | 1014.3 |
| 20260830182526 | 73 | 308 | 1.0 | 1.0 | 0.00 | 0.00 | 0.00 | 76 | 1014.3 |
| 20260830182022 | 73 | 309 | 0.0 | 0.0 | 0.00 | 0.00 | 0.00 | 74 | 1014.2 |
| 20260830181518 | 73 | 307 | 1.0 | 1.0 | 0.00 | 0.00 | 0.00 | 74 | 1014.4 |
| 20260830181017 | 73 | 305 | 1.0 | 1.0 | 0.00 | 0.00 | 0.00 | 75 | 1014.6 |
| 20260830180512 | 73 | 310 | 0.0 | 0.0 | 0.00 | 0.00 | 0.00 | 76 | 1014.7 |
| 20260830180011 | 73 | 309 | 0.0 | 0.0 | 0.00 | 0.00 | 0.00 | 75 | 1014.6 |
| 20260830175505 | 73 | 309 | 0.0 | 1.0 | 0.00 | 0.00 | 0.00 | 74 | 1014.6 |
| 20260830175000 | 73 | 312 | 0.0 | 1.0 | 0.00 | 0.00 | 0.00 | 75 | 1014.7 |
| 20260830174455 | 73 | 303 | 2.0 | 3.0 | 0.00 | 0.00 | 0.00 | 75 | 1014.7 |
| 20260830173950 | 73 | 313 | 1.0 | 1.0 | 0.00 | 0.00 | 0.00 | 74 | 1014.7 |
| 20260830173446 | 74 | 306 | 1.0 | 1.0 | 0.00 | 0.00 | 0.00 | 75 | 1014.9 |
| 20260830172941 | 75 | 304 | 1.0 | 1.0 | 0.00 | 0.00 | 0.00 | 72 | 1014.3 |
| 20260830172438 | 76 | 309 | 0.0 | 1.0 | 0.00 | 0.00 | 0.00 | 69 | 1014.5 |
| 20260830171933 | 77 | 306 | 0.0 | 0.0 | 0.00 | 0.00 | 0.00 | 66 | 1014.6 |
| 20260830171429 | 77 | 306 | 0.0 | 0.0 | 0.00 | 0.00 | 0.00 | 63 | 1014.7 |
| 20260830170928 | 77 | 306 | 1.0 | 1.0 | 0.00 | 0.00 | 0.00 | 63 | 1014.8 |
| 20260830170428 | 78 | 308 | 1.0 | 1.0 | 0.00 | 0.00 | 0.00 | 61 | 1014.8 |
| 20260830165926 | 78 | 305 | 1.0 | 1.0 | 0.00 | 0.00 | 0.00 | 61 | 1014.6 |
| 20260830165422 | 79 | 306 | 1.0 | 1.0 | 0.00 | 0.00 | 0.00 | 59 | 1014.5 |
| 20260830164913 | 80 | 305 | 0.0 | 0.0 | 0.00 | 0.00 | 0.00 | 59 | 1014.3 |
| 20260830164409 | 80 | 304 | 1.0 | 1.0 | 0.00 | 0.00 | 0.00 | 59 | 1014.7 |
| 20260830163905 | 80 | 311 | 1.0 | 1.0 | 0.00 | 0.00 | 0.00 | 57 | 1014.7 |
| 20260830163401 | 80 | 308 | 2.0 | 2.0 | 0.00 | 0.00 | 0.00 | 57 | 1014.5 |
| 20260830162900 | 80 | 313 | 1.0 | 1.0 | 0.00 | 0.00 | 0.00 | 58 | 1014.6 |
| 20260830162356 | 80 | 307 | 0.0 | 0.0 | 0.00 | 0.00 | 0.00 | 58 | 1014.6 |
| 20260830161852 | 80 | 304 | 1.0 | 2.0 | 0.00 | 0.00 | 0.00 | 59 | 1014.6 |
| 20260830161351 | 80 | 302 | 1.0 | 2.0 | 0.00 | 0.00 | 0.00 | 58 | 1014.7 |
| 20260830160847 | 81 | 305 | 1.0 | 1.0 | 0.00 | 0.00 | 0.00 | 57 | 1014.8 |
| 20260830160342 | 80 | 306 | 1.0 | 1.0 | 0.00 | 0.00 | 0.00 | 58 | 1014.9 |
| 20260830155837 | 81 | 309 | 1.0 | 1.0 | 0.00 | 0.00 | 0.00 | 58 | 1014.8 |
| 20260830155334 | 82 | 308 | 0.0 | 1.0 | 0.00 | 0.00 | 0.00 | 56 | 1015.0 |
| 20260830154834 | 82 | 310 | 0.0 | 1.0 | 0.00 | 0.00 | 0.00 | 55 | 1014.9 |
| 20260830154330 | 82 | 307 | 0.0 | 1.0 | 0.00 | 0.00 | 0.00 | 56 | 1015.0 |
| 20260830153826 | 82 | 306 | 0.0 | 1.0 | 0.00 | 0.00 | 0.00 | 57 | 1015.0 |
| 20260830153321 | 82 | 313 | 0.0 | 1.0 | 0.00 | 0.00 | 0.00 | 56 | 1015.2 |
| 20260830152820 | 82 | 315 | 0.0 | 0.0 | 0.00 | 0.00 | 0.00 | 55 | 1015.2 |
| 20260830152314 | 80 | 307 | 1.0 | 1.0 | 0.00 | 0.00 | 0.00 | 56 | 1015.3 |
| 20260830151809 | 80 | 307 | 1.0 | 1.0 | 0.00 | 0.00 | 0.00 | 57 | 1015.3 |
| 20260830151308 | 79 | 308 | 1.0 | 1.0 | 0.00 | 0.00 | 0.00 | 61 | 1015.3 |
| 20260830150804 | 79 | 304 | 1.0 | 2.0 | 0.00 | 0.00 | 0.00 | 58 | 1015.2 |
| 20260830150303 | 78 | 312 | 0.0 | 1.0 | 0.00 | 0.00 | 0.00 | 60 | 1015.4 |
| 20260830145758 | 78 | 306 | 2.0 | 3.0 | 0.00 | 0.00 | 0.00 | 62 | 1015.5 |
| 20260830145253 | 78 | 307 | 1.0 | 1.0 | 0.00 | 0.00 | 0.00 | 59 | 1015.3 |
| 20260830144748 | 79 | 304 | 1.0 | 1.0 | 0.00 | 0.00 | 0.00 | 60 | 1015.5 |
| 20260830144244 | 78 | 299 | 1.0 | 2.0 | 0.00 | 0.00 | 0.00 | 59 | 1015.6 |
| 20260830143740 | 77 | 308 | 1.0 | 1.0 | 0.00 | 0.00 | 0.00 | 63 | 1015.7 |
| 20260830143238 | 76 | 314 | 0.0 | 1.0 | 0.00 | 0.00 | 0.00 | 63 | 1015.8 |
| 20260830142733 | 75 | 317 | 0.0 | 0.0 | 0.00 | 0.00 | 0.00 | 65 | 1015.8 |
| 20260830142228 | 75 | 306 | 1.0 | 1.0 | 0.00 | 0.00 | 0.00 | 65 | 1015.8 |
| 20260830141723 | 75 | 313 | 0.0 | 0.0 | 0.00 | 0.00 | 0.00 | 64 | 1015.9 |
| 20260830141219 | 75 | 306 | 0.0 | 1.0 | 0.00 | 0.00 | 0.00 | 64 | 1015.9 |
| 20260830140713 | 73 | 309 | 0.0 | 0.0 | 0.00 | 0.00 | 0.00 | 68 | 1016.1 |
| 20260830140208 | 74 | 324 | 0.0 | 1.0 | 0.00 | 0.00 | 0.00 | 66 | 1015.9 |
| 20260830135703 | 73 | 310 | 0.0 | 1.0 | 0.00 | 0.00 | 0.00 | 70 | 1016.0 |
| 20260830135158 | 72 | 320 | 0.0 | 0.0 | 0.00 | 0.00 | 0.00 | 68 | 1016.0 |
| 20260830134654 | 72 | 312 | 1.0 | 2.0 | 0.00 | 0.00 | 0.00 | 68 | 1016.0 |
| 20260830134149 | 72 | 308 | 0.0 | 1.0 | 0.00 | 0.00 | 0.00 | 69 | 1016.2 |
| 20260830133645 | 70 | 305 | 1.0 | 1.0 | 0.00 | 0.00 | 0.00 | 71 | 1016.2 |
| 20260830133140 | 69 | 324 | 1.0 | 1.0 | 0.00 | 0.00 | 0.00 | 72 | 1016.3 |
| 20260830132636 | 69 | 309 | 0.0 | 1.0 | 0.00 | 0.00 | 0.00 | 73 | 1016.3 |
| 20260830132132 | 69 | 304 | 1.0 | 1.0 | 0.00 | 0.00 | 0.00 | 73 | 1016.4 |
| 20260830131630 | 68 | 312 | 0.0 | 1.0 | 0.00 | 0.00 | 0.00 | 73 | 1016.1 |
| 20260830131125 | 68 | 307 | 1.0 | 1.0 | 0.00 | 0.00 | 0.00 | 75 | 1016.2 |
| 20260830130620 | 68 | 311 | 0.0 | 1.0 | 0.00 | 0.00 | 0.00 | 75 | 1016.2 |
| 20260830130115 | 68 | 311 | 1.0 | 1.0 | 0.00 | 0.00 | 0.00 | 76 | 1016.3 |
| 20260830125614 | 67 | 310 | 0.0 | 1.0 | 0.00 | 0.00 | 0.00 | 76 | 1016.2 |
| 20260830125114 | 68 | 310 | 1.0 | 1.0 | 0.00 | 0.00 | 0.00 | 75 | 1016.3 |
| 20260830124613 | 67 | 310 | 0.0 | 0.0 | 0.00 | 0.00 | 0.00 | 78 | 1016.3 |
| 20260830124108 | 66 | 314 | 0.0 | 0.0 | 0.00 | 0.00 | 0.00 | 78 | 1016.5 |
| 20260830123606 | 65 | 304 | 0.0 | 1.0 | 0.00 | 0.00 | 0.00 | 79 | 1016.5 |
| 20260830123100 | 65 | 311 | 0.0 | 0.0 | 0.00 | 0.00 | 0.00 | 81 | 1016.5 |
| 20260830122557 | 64 | 314 | 0.0 | 1.0 | 0.00 | 0.00 | 0.00 | 80 | 1016.4 |
| 20260830122053 | 64 | 313 | 0.0 | 1.0 | 0.00 | 0.00 | 0.00 | 80 | 1016.5 |
| 20260830121549 | 64 | 309 | 0.0 | 0.0 | 0.00 | 0.00 | 0.00 | 81 | 1016.5 |
| 20260830121048 | 64 | 309 | 0.0 | 1.0 | 0.00 | 0.00 | 0.00 | 80 | 1016.5 |
| 20260830120543 | 64 | 311 | 0.0 | 0.0 | 0.00 | 0.00 | 0.00 | 80 | 1016.5 |
| 20260830120040 | 64 | 309 | 0.0 | 0.0 | 0.00 | 0.00 | 0.00 | 80 | 1016.5 |
| 20260830115536 | 64 | 311 | 0.0 | 0.0 | 0.00 | 0.00 | 0.00 | 80 | 1016.8 |
| 20260830115031 | 64 | 310 | 0.0 | 0.0 | 0.00 | 0.00 | 0.00 | 81 | 1016.7 |
| 20260830114528 | 64 | 310 | 0.0 | 0.0 | 0.00 | 0.00 | 0.00 | 80 | 1016.9 |
| 20260830114027 | 65 | 310 | 0.0 | 0.0 | 0.00 | 0.00 | 0.00 | 78 | 1016.7 |
| 20260830113522 | 64 | 311 | 0.0 | 1.0 | 0.00 | 0.00 | 0.00 | 78 | 1016.5 |
| 20260830113017 | 64 | 308 | 0.0 | 0.0 | 0.00 | 0.00 | 0.00 | 79 | 1016.6 |
| 20260830112513 | 65 | 309 | 0.0 | 0.0 | 0.00 | 0.00 | 0.00 | 78 | 1016.7 |
| 20260830112009 | 67 | 303 | 0.0 | 0.0 | 0.00 | 0.00 | 0.00 | 74 | 1016.6 |
| 20260830111505 | 66 | 308 | 0.0 | 1.0 | 0.00 | 0.00 | 0.00 | 76 | 1016.7 |
| 20260830111000 | 65 | 308 | 1.0 | 1.0 | 0.00 | 0.00 | 0.00 | 77 | 1016.6 |
| 20260830110455 | 64 | 309 | 0.0 | 1.0 | 0.00 | 0.00 | 0.00 | 77 | 1016.3 |
| 20260830105954 | 63 | 311 | 0.0 | 1.0 | 0.00 | 0.00 | 0.00 | 79 | 1016.2 |
| 20260830105451 | 63 | 310 | 0.0 | 0.0 | 0.00 | 0.00 | 0.00 | 80 | 1016.4 |
| 20260830104947 | 62 | 309 | 0.0 | 0.0 | 0.00 | 0.00 | 0.00 | 82 | 1016.3 |
| 20260830104443 | 61 | 310 | 0.0 | 0.0 | 0.00 | 0.00 | 0.00 | 83 | 1016.5 |
| 20260830103938 | 60 | 313 | 0.0 | 0.0 | 0.00 | 0.00 | 0.00 | 85 | 1016.8 |
| 20260830103434 | 60 | 311 | 0.0 | 0.0 | 0.00 | 0.00 | 0.00 | 86 | 1016.7 |
| 20260830102932 | 60 | 308 | 0.0 | 0.0 | 0.00 | 0.00 | 0.00 | 86 | 1016.7 |
| 20260830102427 | 59 | 311 | 0.0 | 0.0 | 0.00 | 0.00 | 0.00 | 87 | 1016.7 |
| 20260830101924 | 59 | 310 | 0.0 | 0.0 | 0.00 | 0.00 | 0.00 | 86 | 1016.7 |
| 20260830101419 | 59 | 312 | 0.0 | 0.0 | 0.00 | 0.00 | 0.00 | 86 | 1016.9 |
| 20260830100918 | 59 | 313 | 0.0 | 0.0 | 0.00 | 0.00 | 0.00 | 87 | 1016.6 |
| 20260830100417 | 59 | 312 | 0.0 | 0.0 | 0.00 | 0.00 | 0.00 | 87 | 1016.9 |
| 20260830095916 | 59 | 312 | 0.0 | 0.0 | 0.00 | 0.00 | 0.00 | 87 | 1016.6 |
| 20260830095412 | 59 | 316 | 0.0 | 0.0 | 0.00 | 0.00 | 0.00 | 86 | 1016.9 |
| 20260830094908 | 60 | 311 | 0.0 | 0.0 | 0.00 | 0.00 | 0.00 | 86 | 1016.8 |
| 20260830094404 | 60 | 311 | 0.0 | 0.0 | 0.00 | 0.00 | 0.00 | 86 | 1016.8 |
| 20260830093900 | 59 | 312 | 0.0 | 0.0 | 0.00 | 0.00 | 0.00 | 87 | 1017.2 |
| 20260830093355 | 59 | 313 | 0.0 | 0.0 | 0.00 | 0.00 | 0.00 | 86 | 1016.9 |
| 20260830092850 | 59 | 317 | 0.0 | 0.0 | 0.00 | 0.00 | 0.00 | 87 | 1016.9 |
| 20260830092346 | 59 | 312 | 0.0 | 0.0 | 0.00 | 0.00 | 0.00 | 87 | 1017.1 |
| 20260830091843 | 59 | 314 | 0.0 | 1.0 | 0.00 | 0.00 | 0.00 | 87 | 1017.3 |
| 20260830091342 | 59 | 313 | 0.0 | 0.0 | 0.00 | 0.00 | 0.00 | 87 | 1017.1 |
| 20260830090841 | 59 | 312 | 0.0 | 0.0 | 0.00 | 0.00 | 0.00 | 88 | 1017.2 |
| 20260830090337 | 59 | 313 | 0.0 | 0.0 | 0.00 | 0.00 | 0.00 | 88 | 1017.1 |
| 20260830085836 | 59 | 314 | 0.0 | 0.0 | 0.00 | 0.00 | 0.00 | 88 | 1017.1 |
| 20260830085331 | 59 | 307 | 0.0 | 0.0 | 0.00 | 0.00 | 0.00 | 88 | 1017.2 |
| 20260830084827 | 59 | 311 | 0.0 | 0.0 | 0.00 | 0.00 | 0.00 | 88 | 1017.2 |
| 20260830084322 | 59 | 309 | 0.0 | 0.0 | 0.00 | 0.00 | 0.00 | 88 | 1017.2 |
| 20260830083817 | 59 | 311 | 0.0 | 0.0 | 0.00 | 0.00 | 0.00 | 89 | 1017.3 |
| 20260830083313 | 59 | 310 | 0.0 | 0.0 | 0.00 | 0.00 | 0.00 | 89 | 1017.0 |
| 20260830082813 | 60 | 309 | 0.0 | 0.0 | 0.00 | 0.00 | 0.00 | 88 | 1017.0 |
| 20260830082308 | 59 | 308 | 0.0 | 0.0 | 0.00 | 0.00 | 0.00 | 88 | 1017.0 |
| 20260830081803 | 59 | 311 | 0.0 | 0.0 | 0.00 | 0.00 | 0.00 | 89 | 1017.1 |
| 20260830081303 | 59 | 311 | 0.0 | 0.0 | 0.00 | 0.00 | 0.00 | 90 | 1016.9 |
| 20260830080757 | 59 | 310 | 0.0 | 0.0 | 0.00 | 0.00 | 0.00 | 89 | 1017.0 |
| 20260830080254 | 60 | 311 | 0.0 | 0.0 | 0.00 | 0.00 | 0.00 | 89 | 1017.0 |
| 20260830075753 | 60 | 311 | 0.0 | 0.0 | 0.00 | 0.00 | 0.00 | 89 | 1016.8 |
| 20260830075248 | 59 | 312 | 0.0 | 0.0 | 0.00 | 0.00 | 0.00 | 90 | 1017.1 |
| 20260830074743 | 59 | 309 | 0.0 | 0.0 | 0.00 | 0.00 | 0.00 | 91 | 1017.1 |
| 20260830074240 | 59 | 310 | 0.0 | 0.0 | 0.00 | 0.00 | 0.00 | 91 | 1017.1 |
| 20260830073735 | 59 | 311 | 0.0 | 0.0 | 0.00 | 0.00 | 0.00 | 92 | 1017.1 |
| 20260830073231 | 59 | 310 | 0.0 | 0.0 | 0.00 | 0.00 | 0.00 | 93 | 1017.0 |
| 20260830072731 | 59 | 310 | 0.0 | 0.0 | 0.00 | 0.00 | 0.00 | 93 | 1016.9 |
| 20260830072226 | 59 | 311 | 0.0 | 0.0 | 0.00 | 0.00 | 0.00 | 93 | 1017.1 |
| 20260830071721 | 59 | 311 | 0.0 | 0.0 | 0.00 | 0.00 | 0.00 | 94 | 1017.0 |
| 20260830071220 | 59 | 309 | 0.0 | 0.0 | 0.00 | 0.00 | 0.00 | 94 | 1017.1 |
| 20260830070714 | 59 | 311 | 0.0 | 0.0 | 0.00 | 0.00 | 0.00 | 95 | 1016.9 |
| 20260830070209 | 59 | 316 | 0.0 | 1.0 | 0.00 | 0.00 | 0.00 | 97 | 1017.0 |
| 20260830065707 | 58 | 317 | 0.0 | 0.0 | 0.00 | 0.00 | 0.00 | 99 | 1017.3 |
| 20260830065202 | 58 | 308 | 0.0 | 0.0 | 0.00 | 0.00 | 0.00 | 99 | 1017.2 |
| 20260830064701 | 58 | 312 | 0.0 | 0.0 | 0.00 | 0.00 | 0.00 | 99 | 1017.2 |
| 20260830064156 | 57 | 312 | 0.0 | 0.0 | 0.00 | 0.00 | 0.00 | 99 | 1017.1 |
| 20260830063656 | 58 | 312 | 0.0 | 0.0 | 0.00 | 0.00 | 0.00 | 99 | 1017.4 |
| 20260830063156 | 58 | 312 | 0.0 | 0.0 | 0.00 | 0.00 | 0.00 | 99 | 1017.3 |
| 20260830062650 | 58 | 310 | 0.0 | 0.0 | 0.00 | 0.00 | 0.00 | 99 | 1017.4 |
| 20260830062144 | 58 | 310 | 0.0 | 0.0 | 0.00 | 0.00 | 0.00 | 99 | 1017.5 |
| 20260830061639 | 57 | 310 | 0.0 | 0.0 | 0.00 | 0.00 | 0.00 | 99 | 1017.5 |
| 20260830061135 | 57 | 312 | 0.0 | 0.0 | 0.00 | 0.00 | 0.00 | 99 | 1017.4 |
| 20260830060632 | 57 | 310 | 0.0 | 0.0 | 0.00 | 0.00 | 0.00 | 99 | 1017.5 |
| 20260830060122 | 57 | 310 | 0.0 | 0.0 | 0.00 | 0.00 | 0.00 | 99 | 1017.6 |
| 20260830055616 | 57 | 310 | 0.0 | 0.0 | 0.00 | 0.00 | 0.00 | 99 | 1017.7 |
| 20260830055113 | 57 | 310 | 0.0 | 0.0 | 0.00 | 0.00 | 0.00 | 99 | 1017.4 |
| 20260830054608 | 58 | 310 | 0.0 | 0.0 | 0.00 | 0.00 | 0.00 | 99 | 1017.5 |
| 20260830054103 | 58 | 310 | 0.0 | 0.0 | 0.00 | 0.00 | 0.00 | 99 | 1017.6 |
| 20260830053559 | 57 | 310 | 0.0 | 0.0 | 0.00 | 0.00 | 0.00 | 99 | 1017.4 |
| 20260830053059 | 57 | 310 | 0.0 | 0.0 | 0.00 | 0.00 | 0.00 | 99 | 1017.4 |
| 20260830052554 | 57 | 311 | 0.0 | 0.0 | 0.00 | 0.00 | 0.00 | 99 | 1017.6 |
| 20260830052054 | 57 | 312 | 0.0 | 0.0 | 0.00 | 0.00 | 0.00 | 99 | 1017.6 |
| 20260830051549 | 57 | 310 | 0.0 | 0.0 | 0.00 | 0.00 | 0.00 | 99 | 1017.8 |
| 20260830051045 | 58 | 310 | 0.0 | 0.0 | 0.00 | 0.00 | 0.00 | 99 | 1017.7 |
| 20260830050538 | 58 | 310 | 0.0 | 0.0 | 0.00 | 0.00 | 0.00 | 99 | 1017.7 |
| 20260830050033 | 58 | 313 | 0.0 | 0.0 | 0.00 | 0.00 | 0.00 | 99 | 1017.4 |
| 20260830045531 | 58 | 310 | 0.0 | 0.0 | 0.00 | 0.00 | 0.00 | 99 | 1017.6 |
| 20260830045027 | 57 | 312 | 0.0 | 0.0 | 0.00 | 0.00 | 0.00 | 99 | 1017.7 |
| 20260830044521 | 57 | 311 | 0.0 | 0.0 | 0.00 | 0.00 | 0.00 | 99 | 1017.8 |
| 20260830044016 | 58 | 311 | 0.0 | 0.0 | 0.00 | 0.00 | 0.00 | 99 | 1017.7 |
| 20260830043511 | 58 | 310 | 0.0 | 0.0 | 0.00 | 0.00 | 0.00 | 99 | 1017.8 |
| 20260830043010 | 58 | 317 | 0.0 | 0.0 | 0.00 | 0.00 | 0.00 | 99 | 1017.8 |
| 20260830042508 | 58 | 311 | 0.0 | 0.0 | 0.00 | 0.00 | 0.00 | 99 | 1017.8 |
| 20260830042003 | 58 | 310 | 0.0 | 0.0 | 0.00 | 0.00 | 0.00 | 99 | 1018.0 |
| 20260830041502 | 58 | 310 | 0.0 | 0.0 | 0.00 | 0.00 | 0.00 | 99 | 1017.8 |
| 20260830040956 | 58 | 310 | 0.0 | 0.0 | 0.00 | 0.00 | 0.00 | 99 | 1017.8 |
| 20260830040452 | 58 | 310 | 0.0 | 0.0 | 0.00 | 0.00 | 0.00 | 99 | 1017.8 |
| 20260830035951 | 59 | 310 | 0.0 | 0.0 | 0.00 | 0.00 | 0.00 | 99 | 1017.7 |
| 20260830035451 | 59 | 308 | 0.0 | 0.0 | 0.00 | 0.00 | 0.00 | 99 | 1017.8 |
| 20260830034946 | 59 | 310 | 0.0 | 0.0 | 0.00 | 0.00 | 0.00 | 99 | 1017.9 |
| 20260830034442 | 59 | 310 | 0.0 | 0.0 | 0.00 | 0.00 | 0.00 | 98 | 1017.8 |
| 20260830033941 | 59 | 310 | 0.0 | 0.0 | 0.00 | 0.00 | 0.00 | 98 | 1017.8 |
| 20260830033431 | 59 | 310 | 0.0 | 0.0 | 0.00 | 0.00 | 0.00 | 98 | 1017.8 |
| 20260830032926 | 59 | 309 | 0.0 | 0.0 | 0.00 | 0.00 | 0.00 | 98 | 1018.1 |
| 20260830032425 | 59 | 311 | 0.0 | 0.0 | 0.00 | 0.00 | 0.00 | 97 | 1018.0 |
| 20260830031920 | 59 | 313 | 0.0 | 0.0 | 0.00 | 0.00 | 0.00 | 97 | 1018.0 |
| 20260830031415 | 60 | 310 | 0.0 | 0.0 | 0.00 | 0.00 | 0.00 | 97 | 1017.8 |
| 20260830030911 | 60 | 310 | 0.0 | 0.0 | 0.00 | 0.00 | 0.00 | 97 | 1017.9 |
| 20260830030407 | 60 | 310 | 0.0 | 0.0 | 0.00 | 0.00 | 0.00 | 97 | 1018.0 |
| 20260830025901 | 60 | 310 | 0.0 | 0.0 | 0.00 | 0.00 | 0.00 | 97 | 1017.9 |
| 20260830025400 | 60 | 310 | 0.0 | 0.0 | 0.00 | 0.00 | 0.00 | 96 | 1017.7 |
| 20260830024900 | 60 | 310 | 0.0 | 0.0 | 0.00 | 0.00 | 0.00 | 96 | 1017.7 |
| 20260830024355 | 61 | 310 | 0.0 | 0.0 | 0.00 | 0.00 | 0.00 | 95 | 1017.9 |
| 20260830023852 | 61 | 310 | 0.0 | 0.0 | 0.00 | 0.00 | 0.00 | 94 | 1017.9 |
| 20260830023351 | 61 | 312 | 0.0 | 0.0 | 0.00 | 0.00 | 0.00 | 93 | 1017.9 |
| 20260830022850 | 61 | 310 | 0.0 | 0.0 | 0.00 | 0.00 | 0.00 | 90 | 1017.8 |
| 20260830022346 | 61 | 310 | 0.0 | 0.0 | 0.00 | 0.00 | 0.00 | 90 | 1018.0 |
| 20260830021846 | 61 | 312 | 0.0 | 0.0 | 0.00 | 0.00 | 0.00 | 89 | 1018.2 |
| 20260830021341 | 62 | 312 | 0.0 | 0.0 | 0.00 | 0.00 | 0.00 | 88 | 1018.0 |
| 20260830020840 | 62 | 312 | 0.0 | 0.0 | 0.00 | 0.00 | 0.00 | 87 | 1017.9 |
| 20260830020329 | 62 | 313 | 0.0 | 0.0 | 0.00 | 0.00 | 0.00 | 87 | 1018.1 |
| 20260830015825 | 62 | 312 | 0.0 | 0.0 | 0.00 | 0.00 | 0.00 | 87 | 1018.1 |
| 20260830015319 | 62 | 310 | 0.0 | 0.0 | 0.00 | 0.00 | 0.00 | 87 | 1017.9 |
| 20260830014814 | 62 | 310 | 0.0 | 0.0 | 0.00 | 0.00 | 0.00 | 86 | 1017.9 |
| 20260830014310 | 63 | 311 | 0.0 | 0.0 | 0.00 | 0.00 | 0.00 | 85 | 1018.0 |
| 20260830013801 | 63 | 310 | 0.0 | 0.0 | 0.00 | 0.00 | 0.00 | 85 | 1017.9 |
| 20260830013256 | 63 | 312 | 0.0 | 0.0 | 0.00 | 0.00 | 0.00 | 84 | 1018.0 |
| 20260830012751 | 63 | 311 | 0.0 | 0.0 | 0.00 | 0.00 | 0.00 | 84 | 1017.6 |
| 20260830012247 | 64 | 312 | 0.0 | 0.0 | 0.00 | 0.00 | 0.00 | 84 | 1017.8 |
| 20260830011743 | 64 | 319 | 0.0 | 0.0 | 0.00 | 0.00 | 0.00 | 84 | 1017.7 |
| 20260830011238 | 64 | 313 | 0.0 | 0.0 | 0.00 | 0.00 | 0.00 | 84 | 1018.0 |
| 20260830010732 | 64 | 312 | 0.0 | 0.0 | 0.00 | 0.00 | 0.00 | 84 | 1018.1 |
| 20260830010226 | 64 | 324 | 1.0 | 1.0 | 0.00 | 0.00 | 0.00 | 84 | 1017.9 |
| 20260830005726 | 64 | 311 | 0.0 | 0.0 | 0.00 | 0.00 | 0.00 | 85 | 1018.0 |
| 20260830005224 | 64 | 310 | 0.0 | 0.0 | 0.00 | 0.00 | 0.00 | 84 | 1018.0 |
| 20260830004719 | 64 | 313 | 0.0 | 1.0 | 0.00 | 0.00 | 0.00 | 84 | 1018.0 |
| 20260830004215 | 65 | 312 | 0.0 | 0.0 | 0.00 | 0.00 | 0.00 | 83 | 1018.1 |
| 20260830003709 | 65 | 320 | 1.0 | 1.0 | 0.00 | 0.00 | 0.00 | 83 | 1018.0 |
| 20260830003203 | 65 | 327 | 1.0 | 1.0 | 0.00 | 0.00 | 0.00 | 82 | 1018.0 |
| 20260830002701 | 65 | 313 | 1.0 | 1.0 | 0.00 | 0.00 | 0.00 | 82 | 1018.2 |
| 20260830002157 | 65 | 354 | 3.0 | 3.0 | 0.00 | 0.00 | 0.00 | 82 | 1018.0 |